LAN310 SCCI-SCEL

Flight info

Callsign LAN310
Flight time 2h 59m
Altitude 34000
Route ISAPU DCT GEKAM DCT SIRUN UQ802 EROLO EROLO2D
Aircraft A321/M-SDE1E2FGHIRWY/S

Departure

Time 2026-05-04 21:06
Airport President Carlos Ibáñez International Airport (SCCI)

Arrival

Time 2026-05-05 00:06
Airport Comodoro Arturo Merino Benítez International Airport (SCEL)
Time Latitude Longitude Altitude Speed Heading
2026-05-04 20:47 -53.00445 -70.84364 142 ft 0 kts 179°
2026-05-04 20:55 -53.00435 -70.84364 134 ft 4 kts 182°
2026-05-04 20:55 -53.00409 -70.84358 134 ft 4 kts 201°
2026-05-04 20:55 -53.00387 -70.84335 134 ft 4 kts 233°
2026-05-04 20:56 -53.00379 -70.84303 135 ft 1 kts 268°
2026-05-04 20:58 -53.00379 -70.84304 135 ft 1 kts 268°
2026-05-04 20:58 -53.00380 -70.84377 136 ft 7 kts 268°
2026-05-04 20:59 -53.00381 -70.84422 137 ft 4 kts 268°
2026-05-04 20:59 -53.00382 -70.84516 134 ft 13 kts 269°
2026-05-04 20:59 -53.00348 -70.84652 134 ft 11 kts 324°
2026-05-04 20:59 -53.00302 -70.84706 134 ft 5 kts 327°
2026-05-04 21:00 -53.00261 -70.84752 132 ft 15 kts 327°
2026-05-04 21:00 -53.00170 -70.84848 133 ft 12 kts 328°
2026-05-04 21:00 -53.00124 -70.84886 134 ft 3 kts 337°
2026-05-04 21:00 -53.00102 -70.84907 134 ft 8 kts 321°
2026-05-04 21:01 -53.00084 -70.85036 133 ft 15 kts 270°
2026-05-04 21:01 -53.00090 -70.85229 134 ft 19 kts 263°
2026-05-04 21:01 -53.00096 -70.85450 133 ft 18 kts 270°
2026-05-04 21:01 -53.00091 -70.85626 131 ft 12 kts 270°
2026-05-04 21:02 -53.00093 -70.85785 160 ft 17 kts 269°
2026-05-04 21:02 -53.00097 -70.86024 162 ft 24 kts 267°
2026-05-04 21:02 -53.00100 -70.86279 164 ft 19 kts 269°
2026-05-04 21:02 -53.00102 -70.86462 163 ft 14 kts 269°
2026-05-04 21:03 -53.00102 -70.86632 162 ft 15 kts 270°
2026-05-04 21:03 -53.00104 -70.86807 161 ft 15 kts 265°
2026-05-04 21:03 -53.00094 -70.86930 160 ft 3 kts 257°
2026-05-04 21:03 -53.00102 -70.86930 160 ft 1 kts 173°
2026-05-04 21:04 -53.00106 -70.86902 160 ft 2 kts 96°
2026-05-04 21:04 -53.00105 -70.86899 160 ft 0 kts 91°
2026-05-04 21:05 -53.00105 -70.86898 160 ft 1 kts 90°
2026-05-04 21:05 -53.00105 -70.86632 162 ft 56 kts 89°
2026-05-04 21:05 -53.00093 -70.85626 132 ft 116 kts 89°
2026-05-04 21:05 -53.00075 -70.84026 163 ft 161 kts 89°
2026-05-04 21:06 -53.00081 -70.82134 709 ft 158 kts 90°
2026-05-04 21:06 -53.00070 -70.80310 1366 ft 160 kts 88°
2026-05-04 21:06 -53.00039 -70.78368 1605 ft 178 kts 87°
2026-05-04 21:06 -52.99991 -70.76206 1795 ft 197 kts 86°
2026-05-04 21:07 -52.99928 -70.73827 2012 ft 216 kts 86°
2026-05-04 21:07 -52.99875 -70.71188 2249 ft 240 kts 86°
2026-05-04 21:07 -52.99448 -70.68497 2858 ft 247 kts 56°
2026-05-04 21:07 -52.98112 -70.66705 3524 ft 255 kts 20°
2026-05-04 21:08 -52.96340 -70.66569 4205 ft 263 kts 343°
2026-05-04 21:08 -52.94802 -70.68190 4864 ft 268 kts 309°
2026-05-04 21:08 -52.93800 -70.70799 5617 ft 269 kts 294°
2026-05-04 21:08 -52.93047 -70.73651 6369 ft 270 kts 290°
2026-05-04 21:09 -52.92346 -70.76506 7077 ft 272 kts 290°
2026-05-04 21:09 -52.91592 -70.79390 7779 ft 275 kts 292°
2026-05-04 21:09 -52.90767 -70.82275 8473 ft 279 kts 294°
2026-05-04 21:09 -52.89881 -70.85158 9150 ft 283 kts 295°
2026-05-04 21:10 -52.88952 -70.88047 9784 ft 286 kts 296°
2026-05-04 21:10 -52.87989 -70.90961 10272 ft 296 kts 297°
2026-05-04 21:10 -52.86957 -70.94048 10402 ft 317 kts 297°
2026-05-04 21:10 -52.85849 -70.97347 10535 ft 337 kts 297°
2026-05-04 21:11 -52.84675 -71.00826 10703 ft 354 kts 298°
2026-05-04 21:11 -52.83456 -71.04427 11173 ft 361 kts 298°
2026-05-04 21:11 -52.82222 -71.08066 11786 ft 364 kts 298°
2026-05-04 21:11 -52.81000 -71.11663 12867 ft 352 kts 298°
2026-05-04 21:12 -52.79808 -71.15176 13710 ft 350 kts 298°
2026-05-04 21:12 -52.78617 -71.18689 14290 ft 352 kts 298°
2026-05-04 21:12 -52.77416 -71.22229 14862 ft 355 kts 298°
2026-05-04 21:12 -52.76203 -71.25801 15413 ft 358 kts 298°
2026-05-04 21:13 -52.74982 -71.29392 15959 ft 361 kts 298°
2026-05-04 21:13 -52.73750 -71.33010 16631 ft 359 kts 298°
2026-05-04 21:13 -52.72380 -71.36430 17376 ft 358 kts 307°
2026-05-04 21:13 -52.70685 -71.39469 17935 ft 361 kts 316°
2026-05-04 21:14 -52.68800 -71.42253 18336 ft 368 kts 317°
2026-05-04 21:14 -52.66865 -71.45119 18460 ft 381 kts 317°
2026-05-04 21:14 -52.64867 -71.48090 18593 ft 393 kts 316°
2026-05-04 21:14 -52.62819 -71.51144 18801 ft 401 kts 316°
2026-05-04 21:15 -52.60733 -71.54250 19138 ft 406 kts 316°
2026-05-04 21:15 -52.58635 -71.57368 19531 ft 409 kts 316°
2026-05-04 21:15 -52.56520 -71.60506 19941 ft 411 kts 317°
2026-05-04 21:15 -52.54387 -71.63664 20361 ft 414 kts 317°
2026-05-04 21:16 -52.52242 -71.66835 20781 ft 416 kts 317°
2026-05-04 21:16 -52.50085 -71.70012 21197 ft 418 kts 317°
2026-05-04 21:16 -52.47918 -71.73222 21607 ft 420 kts 317°
2026-05-04 21:16 -52.45747 -71.76444 22021 ft 422 kts 317°
2026-05-04 21:17 -52.43555 -71.79673 22450 ft 424 kts 317°
2026-05-04 21:17 -52.41349 -71.82904 22872 ft 426 kts 317°
2026-05-04 21:17 -52.39133 -71.86136 23243 ft 428 kts 317°
2026-05-04 21:17 -52.36911 -71.89371 23592 ft 426 kts 317°
2026-05-04 21:18 -52.34703 -71.92590 23962 ft 424 kts 317°
2026-05-04 21:18 -52.32526 -71.95769 24322 ft 425 kts 317°
2026-05-04 21:18 -52.30316 -71.98993 24692 ft 426 kts 318°
2026-05-04 21:18 -52.28101 -72.02222 25073 ft 427 kts 318°
2026-05-04 21:19 -52.25880 -72.05450 25445 ft 428 kts 318°
2026-05-04 21:19 -52.23659 -72.08673 25830 ft 428 kts 318°
2026-05-04 21:19 -52.21432 -72.11901 26213 ft 428 kts 318°
2026-05-04 21:19 -52.19208 -72.15128 26620 ft 428 kts 319°
2026-05-04 21:20 -52.16986 -72.18345 27025 ft 428 kts 319°
2026-05-04 21:20 -52.14756 -72.21569 27438 ft 427 kts 319°
2026-05-04 21:20 -52.12530 -72.24778 27774 ft 429 kts 319°
2026-05-04 21:20 -52.10281 -72.28007 27935 ft 434 kts 319°
2026-05-04 21:21 -52.08007 -72.31273 28172 ft 437 kts 319°
2026-05-04 21:21 -52.05725 -72.34550 28599 ft 436 kts 319°
2026-05-04 21:21 -52.03339 -72.37582 28893 ft 437 kts 326°
2026-05-04 21:21 -52.00823 -72.40396 29044 ft 441 kts 327°
2026-05-04 21:22 -51.98272 -72.43206 29267 ft 444 kts 327°
2026-05-04 21:22 -51.95718 -72.45996 29678 ft 442 kts 327°
2026-05-04 21:22 -51.93157 -72.48783 29962 ft 443 kts 327°
2026-05-04 21:22 -51.90594 -72.51567 30209 ft 444 kts 326°
2026-05-04 21:23 -51.88028 -72.54353 30460 ft 445 kts 326°
2026-05-04 21:23 -51.85459 -72.57147 30716 ft 445 kts 326°
2026-05-04 21:23 -51.82883 -72.59947 30967 ft 446 kts 326°
2026-05-04 21:23 -51.80319 -72.62734 31151 ft 448 kts 326°
2026-05-04 21:24 -51.77755 -72.65529 31280 ft 452 kts 326°
2026-05-04 21:24 -51.75108 -72.68413 31414 ft 455 kts 326°
2026-05-04 21:24 -51.72475 -72.71280 31588 ft 457 kts 325°
2026-05-04 21:24 -51.69877 -72.74111 31876 ft 457 kts 325°
2026-05-04 21:25 -51.67246 -72.76975 32205 ft 456 kts 325°
2026-05-04 21:25 -51.64616 -72.79833 32501 ft 455 kts 326°
2026-05-04 21:25 -51.61995 -72.82672 32786 ft 455 kts 326°
2026-05-04 21:25 -51.59367 -72.85510 33065 ft 454 kts 326°
2026-05-04 21:26 -51.56740 -72.88343 33323 ft 454 kts 326°
2026-05-04 21:26 -51.54122 -72.91160 33583 ft 453 kts 326°
2026-05-04 21:26 -51.51502 -72.93947 33933 ft 449 kts 326°
2026-05-04 21:26 -51.48897 -72.96688 34284 ft 445 kts 326°
2026-05-04 21:27 -51.46313 -72.99376 34547 ft 443 kts 326°
2026-05-04 21:27 -51.43726 -73.02053 34787 ft 441 kts 326°
2026-05-04 21:27 -51.41157 -73.04711 35024 ft 439 kts 326°
2026-05-04 21:27 -51.38591 -73.07357 35270 ft 437 kts 326°
2026-05-04 21:28 -51.36035 -73.09978 35441 ft 437 kts 326°
2026-05-04 21:28 -51.33461 -73.12583 35484 ft 440 kts 328°
2026-05-04 21:28 -51.28093 -73.17496 35484 ft 448 kts 328°
2026-05-04 21:29 -51.22626 -73.22290 35484 ft 448 kts 328°
2026-05-04 21:29 -51.17155 -73.27105 35484 ft 449 kts 328°
2026-05-04 21:30 -51.11674 -73.31809 35481 ft 448 kts 329°
2026-05-04 21:30 -51.06230 -73.36528 35486 ft 448 kts 329°
2026-05-04 21:31 -50.98033 -73.43691 35493 ft 448 kts 329°
2026-05-04 21:32 -50.92577 -73.48475 35495 ft 448 kts 329°
2026-05-04 21:32 -50.87127 -73.53289 35484 ft 449 kts 329°
2026-05-04 21:33 -50.81675 -73.58113 35485 ft 449 kts 329°
2026-05-04 21:33 -50.76210 -73.62940 35486 ft 450 kts 329°
2026-05-04 21:34 -50.70746 -73.67761 35491 ft 450 kts 329°
2026-05-04 21:34 -50.65277 -73.72575 35488 ft 450 kts 329°
2026-05-04 21:35 -50.59794 -73.77344 35489 ft 450 kts 329°
2026-05-04 21:35 -50.54309 -73.82102 35494 ft 450 kts 329°
2026-05-04 21:36 -50.48814 -73.86864 35499 ft 450 kts 329°
2026-05-04 21:36 -50.44257 -73.90804 35487 ft 450 kts 329°
2026-05-04 21:37 -50.38745 -73.95495 35488 ft 450 kts 329°
2026-05-04 21:37 -50.33245 -74.00165 35494 ft 450 kts 329°
2026-05-04 21:37 -50.30360 -74.02057 35480 ft 453 kts 344°
2026-05-04 21:38 -50.27223 -74.02748 35487 ft 456 kts 356°
2026-05-04 21:38 -50.20927 -74.01747 35471 ft 461 kts
2026-05-04 21:39 -50.14615 -73.99898 35476 ft 461 kts
2026-05-04 21:39 -50.08250 -73.98683 35491 ft 461 kts
2026-05-04 21:40 -50.01845 -73.97984 35501 ft 461 kts
2026-05-04 21:40 -49.95428 -73.97304 35510 ft 462 kts
2026-05-04 21:41 -49.89015 -73.96483 35527 ft 463 kts
2026-05-04 21:41 -49.82590 -73.95596 35530 ft 463 kts
2026-05-04 21:42 -49.76175 -73.94735 35542 ft 462 kts
2026-05-04 21:42 -49.69802 -73.93914 35535 ft 462 kts
2026-05-04 21:43 -49.63354 -73.93090 35554 ft 462 kts
2026-05-04 21:43 -49.56977 -73.92262 35550 ft 462 kts
2026-05-04 21:44 -49.50569 -73.91423 35533 ft 462 kts
2026-05-04 21:44 -49.44166 -73.90592 35539 ft 462 kts
2026-05-04 21:45 -49.37745 -73.89765 35553 ft 463 kts
2026-05-04 21:45 -49.31322 -73.88948 35556 ft 463 kts
2026-05-04 21:46 -49.24883 -73.88138 35546 ft 464 kts
2026-05-04 21:46 -49.18480 -73.87313 35558 ft 465 kts
2026-05-04 21:47 -49.12005 -73.86481 35576 ft 465 kts
2026-05-04 21:47 -49.05576 -73.85671 35572 ft 464 kts
2026-05-04 21:48 -48.99160 -73.84855 35576 ft 465 kts
2026-05-04 21:48 -48.92717 -73.84037 35579 ft 465 kts 360°
2026-05-04 21:49 -48.86260 -73.83240 35601 ft 466 kts 360°
2026-05-04 21:49 -48.79786 -73.82439 35591 ft 466 kts 359°
2026-05-04 21:50 -48.73299 -73.81614 35583 ft 470 kts 360°
2026-05-04 21:50 -48.66763 -73.80782 35582 ft 473 kts 360°
2026-05-04 21:51 -48.60190 -73.79950 35604 ft 475 kts 359°
2026-05-04 21:51 -48.53603 -73.79135 35587 ft 475 kts 359°
2026-05-04 21:52 -48.47000 -73.78338 35610 ft 476 kts 359°
2026-05-04 21:52 -48.40432 -73.77524 35632 ft 477 kts 359°
2026-05-04 21:53 -48.33823 -73.76706 35624 ft 475 kts 359°
2026-05-04 21:53 -48.27230 -73.75897 35639 ft 476 kts 359°
2026-05-04 21:54 -48.20625 -73.75083 35649 ft 475 kts 359°
2026-05-04 21:54 -48.14034 -73.74273 35631 ft 476 kts 358°
2026-05-04 21:55 -48.07423 -73.73466 35638 ft 477 kts 358°
2026-05-04 21:55 -48.00790 -73.72670 35653 ft 477 kts 358°
2026-05-04 21:56 -47.94204 -73.71879 35659 ft 478 kts 358°
2026-05-04 21:56 -47.87574 -73.71075 35653 ft 478 kts 358°
2026-05-04 21:57 -47.80942 -73.70275 35666 ft 477 kts 358°
2026-05-04 21:57 -47.74311 -73.69486 35676 ft 477 kts 358°
2026-05-04 21:58 -47.67684 -73.68694 35681 ft 478 kts 358°
2026-05-04 21:58 -47.61048 -73.67888 35694 ft 477 kts 358°
2026-05-04 21:59 -47.54433 -73.67090 35692 ft 477 kts 358°
2026-05-04 21:59 -47.47865 -73.66317 35688 ft 477 kts 358°
2026-05-04 22:00 -47.41256 -73.65537 35662 ft 477 kts 357°
2026-05-04 22:00 -47.34631 -73.64755 35689 ft 478 kts 357°
2026-05-04 22:01 -47.27993 -73.63977 35702 ft 478 kts 357°
2026-05-04 22:01 -47.21354 -73.63193 35683 ft 478 kts 357°
2026-05-04 22:02 -47.14729 -73.62405 35685 ft 478 kts 357°
2026-05-04 22:02 -47.08087 -73.61634 35702 ft 479 kts 357°
2026-05-04 22:03 -47.01439 -73.60871 35691 ft 479 kts 356°
2026-05-04 22:03 -46.94805 -73.60272 35714 ft 476 kts 354°
2026-05-04 22:04 -46.88183 -73.60030 35731 ft 475 kts 353°
2026-05-04 22:04 -46.81601 -73.59834 35719 ft 476 kts 353°
2026-05-04 22:05 -46.74972 -73.59549 35738 ft 477 kts 353°
2026-05-04 22:05 -46.68342 -73.59199 35757 ft 477 kts 353°
2026-05-04 22:06 -46.61716 -73.58875 35758 ft 476 kts 353°
2026-05-04 22:06 -46.55093 -73.58575 35758 ft 476 kts 353°
2026-05-04 22:07 -46.48486 -73.58257 35746 ft 474 kts 353°
2026-05-04 22:07 -46.41886 -73.57948 35751 ft 475 kts 352°
2026-05-04 22:08 -46.35257 -73.57653 35770 ft 476 kts 352°
2026-05-04 22:08 -46.28631 -73.57362 35781 ft 475 kts 352°
2026-05-04 22:09 -46.22030 -73.57060 35781 ft 475 kts 352°
2026-05-04 22:09 -46.15433 -73.56745 35756 ft 473 kts 352°
2026-05-04 22:10 -46.08899 -73.56440 35781 ft 472 kts 351°
2026-05-04 22:10 -46.02328 -73.56155 35790 ft 471 kts 351°
2026-05-04 22:11 -45.95774 -73.55854 35766 ft 470 kts 351°
2026-05-04 22:11 -45.89236 -73.55542 35787 ft 470 kts 351°
2026-05-04 22:12 -45.82714 -73.55244 35800 ft 468 kts 351°
2026-05-04 22:12 -45.76199 -73.54954 35769 ft 468 kts 350°
2026-05-04 22:13 -45.69704 -73.54659 35802 ft 466 kts 350°
2026-05-04 22:13 -45.63234 -73.54361 35810 ft 464 kts 350°
2026-05-04 22:14 -45.56783 -73.54075 35816 ft 464 kts 350°
2026-05-04 22:14 -45.50379 -73.53796 35818 ft 463 kts 350°
2026-05-04 22:15 -45.43931 -73.53506 35818 ft 463 kts 350°
2026-05-04 22:15 -45.37476 -73.53211 35818 ft 462 kts 350°
2026-05-04 22:16 -45.31041 -73.52927 35805 ft 461 kts 349°
2026-05-04 22:16 -45.24665 -73.52639 35820 ft 461 kts 349°
2026-05-04 22:17 -45.18251 -73.52349 35820 ft 460 kts 349°
2026-05-04 22:17 -45.11832 -73.51923 35808 ft 464 kts 351°
2026-05-04 22:18 -45.05370 -73.51080 35826 ft 466 kts 352°
2026-05-04 22:18 -44.98915 -73.50137 35837 ft 465 kts 352°
2026-05-04 22:19 -44.92480 -73.49274 35820 ft 463 kts 350°
2026-05-04 22:19 -44.86074 -73.48486 35840 ft 461 kts 350°
2026-05-04 22:20 -44.79722 -73.47719 35841 ft 461 kts 350°
2026-05-04 22:20 -44.73333 -73.46934 35812 ft 460 kts 348°
2026-05-04 22:21 -44.66962 -73.46140 35838 ft 459 kts 348°
2026-05-04 22:21 -44.60606 -73.45351 35851 ft 458 kts 348°
2026-05-04 22:22 -44.54257 -73.44565 35831 ft 457 kts 348°
2026-05-04 22:22 -44.47927 -73.43781 35850 ft 456 kts 348°
2026-05-04 22:23 -44.41613 -73.43016 35857 ft 455 kts 348°
2026-05-04 22:23 -44.36374 -73.42381 35857 ft 455 kts 348°
2026-05-04 22:24 -44.30080 -73.41605 35854 ft 453 kts 348°
2026-05-04 22:24 -44.23810 -73.40830 35858 ft 452 kts 348°
2026-05-04 22:25 -44.17548 -73.40068 35874 ft 452 kts 348°
2026-05-04 22:25 -44.11283 -73.39316 35843 ft 451 kts 347°
2026-05-04 22:26 -44.05027 -73.38559 35863 ft 451 kts 347°
2026-05-04 22:26 -43.98778 -73.37799 35872 ft 450 kts 347°
2026-05-04 22:27 -43.92582 -73.37044 35848 ft 449 kts 347°
2026-05-04 22:27 -43.86360 -73.36287 35858 ft 448 kts 347°
2026-05-04 22:28 -43.80140 -73.35526 35871 ft 448 kts 347°
2026-05-04 22:28 -43.73939 -73.34783 35881 ft 447 kts 347°
2026-05-04 22:29 -43.67740 -73.34051 35889 ft 446 kts 347°
2026-05-04 22:29 -43.61549 -73.33314 35898 ft 446 kts 347°
2026-05-04 22:30 -43.55369 -73.32567 35872 ft 445 kts 347°
2026-05-04 22:30 -43.49196 -73.31829 35880 ft 445 kts 347°
2026-05-04 22:31 -43.43024 -73.31102 35887 ft 445 kts 347°
2026-05-04 22:31 -43.36851 -73.30376 35851 ft 445 kts 348°
2026-05-04 22:32 -43.30667 -73.29646 35893 ft 449 kts 347°
2026-05-04 22:32 -43.24469 -73.28919 35893 ft 449 kts 348°
2026-05-04 22:33 -43.18246 -73.28183 35860 ft 449 kts 348°
2026-05-04 22:33 -43.12014 -73.27455 35897 ft 449 kts 348°
2026-05-04 22:34 -43.05789 -73.26793 35899 ft 448 kts 347°
2026-05-04 22:34 -42.99573 -73.26151 35900 ft 448 kts 347°
2026-05-04 22:35 -42.93344 -73.25499 35868 ft 448 kts 347°
2026-05-04 22:35 -42.87154 -73.24846 35879 ft 449 kts 348°
2026-05-04 22:36 -42.80913 -73.24186 35895 ft 450 kts 348°
2026-05-04 22:36 -42.74675 -73.23529 35879 ft 449 kts 348°
2026-05-04 22:37 -42.68437 -73.22876 35904 ft 449 kts 348°
2026-05-04 22:37 -42.62206 -73.22227 35910 ft 449 kts 348°
2026-05-04 22:38 -42.55973 -73.21581 35890 ft 449 kts 348°
2026-05-04 22:38 -42.49752 -73.20935 35908 ft 448 kts 348°
2026-05-04 22:39 -42.43569 -73.20292 35924 ft 448 kts 348°
2026-05-04 22:39 -42.37347 -73.19628 35882 ft 448 kts 348°
2026-05-04 22:40 -42.31129 -73.18928 35917 ft 448 kts 348°
2026-05-04 22:40 -42.24919 -73.18226 35935 ft 447 kts 348°
2026-05-04 22:41 -42.18718 -73.17535 35938 ft 447 kts 348°
2026-05-04 22:41 -42.12516 -73.16836 35926 ft 446 kts 348°
2026-05-04 22:42 -42.06370 -73.16151 35937 ft 445 kts 348°
2026-05-04 22:42 -42.00202 -73.15469 35943 ft 445 kts 348°
2026-05-04 22:43 -41.94040 -73.14793 35939 ft 444 kts 348°
2026-05-04 22:43 -41.87864 -73.14119 35950 ft 444 kts 348°
2026-05-04 22:44 -41.81718 -73.13437 35967 ft 441 kts 348°
2026-05-04 22:44 -41.75629 -73.12756 35910 ft 438 kts 348°
2026-05-04 22:45 -41.69573 -73.12094 35939 ft 435 kts 348°
2026-05-04 22:45 -41.60526 -73.11114 35957 ft 435 kts 348°
2026-05-04 22:46 -41.54501 -73.10457 35934 ft 434 kts 349°
2026-05-04 22:46 -41.48482 -73.09806 35940 ft 434 kts 349°
2026-05-04 22:47 -41.42465 -73.09146 35948 ft 435 kts 349°
2026-05-04 22:47 -41.36397 -73.08157 35953 ft 442 kts 353°
2026-05-04 22:48 -41.30344 -73.06908 35929 ft 443 kts 353°
2026-05-04 22:48 -41.24263 -73.05671 35946 ft 441 kts 353°
2026-05-04 22:49 -41.18196 -73.04522 35955 ft 440 kts 352°
2026-05-04 22:49 -41.12138 -73.03412 35930 ft 439 kts 353°
2026-05-04 22:50 -41.06083 -73.02304 35946 ft 439 kts 353°
2026-05-04 22:50 -41.00039 -73.01190 35952 ft 438 kts 353°
2026-05-04 22:51 -40.93995 -73.00078 35958 ft 438 kts 353°
2026-05-04 22:51 -40.87958 -72.98971 35939 ft 437 kts 353°
2026-05-04 22:52 -40.81983 -72.97870 35953 ft 436 kts 353°
2026-05-04 22:52 -40.75970 -72.96774 35960 ft 435 kts 353°
2026-05-04 22:53 -40.69972 -72.95681 35924 ft 435 kts 353°
2026-05-04 22:53 -40.63982 -72.94589 35947 ft 434 kts 353°
2026-05-04 22:54 -40.57995 -72.93504 35953 ft 434 kts 353°
2026-05-04 22:54 -40.52005 -72.92420 35959 ft 434 kts 353°
2026-05-04 22:55 -40.46034 -72.91334 35917 ft 433 kts 353°
2026-05-04 22:55 -40.40064 -72.90255 35930 ft 432 kts 353°
2026-05-04 22:56 -40.34140 -72.89182 35936 ft 432 kts 353°
2026-05-04 22:56 -40.28187 -72.88161 35943 ft 431 kts 353°
2026-05-04 22:57 -40.22239 -72.87210 35916 ft 430 kts 353°
2026-05-04 22:57 -40.16290 -72.86273 35928 ft 431 kts 353°
2026-05-04 22:58 -40.10330 -72.85300 35934 ft 432 kts 353°
2026-05-04 22:58 -40.04353 -72.84319 35920 ft 432 kts 353°
2026-05-04 22:59 -39.98400 -72.83348 35943 ft 433 kts 353°
2026-05-04 22:59 -39.92391 -72.82371 35954 ft 434 kts 353°
2026-05-04 23:00 -39.86411 -72.81402 35963 ft 433 kts 353°
2026-05-04 23:00 -39.80421 -72.80435 35971 ft 434 kts 353°
2026-05-04 23:01 -39.74457 -72.79473 35979 ft 433 kts 353°
2026-05-04 23:01 -39.68472 -72.78489 35979 ft 435 kts 354°
2026-05-04 23:02 -39.62457 -72.77397 35974 ft 435 kts 354°
2026-05-04 23:02 -39.56447 -72.76267 35950 ft 435 kts 355°
2026-05-04 23:03 -39.50478 -72.75163 35957 ft 435 kts 354°
2026-05-04 23:03 -39.44480 -72.74080 35960 ft 435 kts 354°
2026-05-04 23:04 -39.38467 -72.72998 35932 ft 435 kts 355°
2026-05-04 23:04 -39.32502 -72.71917 35951 ft 435 kts 355°
2026-05-04 23:05 -39.26485 -72.70829 35959 ft 435 kts 355°
2026-05-04 23:05 -39.20515 -72.69758 35983 ft 434 kts 355°
2026-05-04 23:06 -39.14510 -72.68678 35967 ft 434 kts 355°
2026-05-04 23:06 -39.08548 -72.67601 35996 ft 433 kts 355°
2026-05-04 23:07 -39.02595 -72.66533 36006 ft 432 kts 355°
2026-05-04 23:07 -38.96637 -72.65458 36007 ft 432 kts 355°
2026-05-04 23:08 -38.91704 -72.64573 35993 ft 431 kts 355°
2026-05-04 23:08 -38.85730 -72.63194 36004 ft 438 kts 360°
2026-05-04 23:09 -38.79774 -72.61399 36005 ft 440 kts
2026-05-04 23:09 -38.73836 -72.59575 35993 ft 439 kts
2026-05-04 23:10 -38.67880 -72.57857 35958 ft 438 kts
2026-05-04 23:10 -38.61933 -72.56188 35963 ft 439 kts
2026-05-04 23:11 -38.55978 -72.54504 35973 ft 440 kts
2026-05-04 23:11 -38.49970 -72.52801 35993 ft 440 kts
2026-05-04 23:12 -38.43996 -72.51110 35978 ft 440 kts
2026-05-04 23:12 -38.38047 -72.49438 35995 ft 439 kts
2026-05-04 23:13 -38.32094 -72.47765 36010 ft 439 kts
2026-05-04 23:13 -38.26127 -72.46083 36013 ft 439 kts
2026-05-04 23:14 -38.20160 -72.44400 35998 ft 439 kts
2026-05-04 23:14 -38.14168 -72.42719 36012 ft 438 kts
2026-05-04 23:15 -38.08231 -72.41062 36014 ft 438 kts
2026-05-04 23:15 -38.02276 -72.39402 36023 ft 438 kts
2026-05-04 23:16 -37.96353 -72.37757 36005 ft 437 kts
2026-05-04 23:16 -37.90396 -72.36097 36015 ft 437 kts
2026-05-04 23:17 -37.84464 -72.34443 36026 ft 437 kts
2026-05-04 23:17 -37.78524 -72.32798 36033 ft 437 kts
2026-05-04 23:18 -37.72603 -72.31165 35993 ft 437 kts
2026-05-04 23:18 -37.66654 -72.29531 36008 ft 437 kts
2026-05-04 23:19 -37.60694 -72.27836 36017 ft 439 kts
2026-05-04 23:19 -37.54758 -72.25994 36026 ft 440 kts
2026-05-04 23:20 -37.48788 -72.24120 36016 ft 441 kts
2026-05-04 23:20 -37.42855 -72.22300 36018 ft 441 kts
2026-05-04 23:21 -37.36898 -72.20501 36020 ft 441 kts
2026-05-04 23:21 -37.30919 -72.18691 36021 ft 441 kts
2026-05-04 23:22 -37.24948 -72.16880 35994 ft 442 kts
2026-05-04 23:22 -37.18969 -72.15068 36002 ft 443 kts
2026-05-04 23:23 -37.12966 -72.13259 36007 ft 444 kts
2026-05-04 23:23 -37.06939 -72.11438 36017 ft 444 kts
2026-05-04 23:24 -37.00963 -72.09635 35993 ft 445 kts
2026-05-04 23:24 -36.94939 -72.07821 36008 ft 445 kts
2026-05-04 23:25 -36.88896 -72.06010 36012 ft 446 kts
2026-05-04 23:25 -36.82854 -72.04203 36021 ft 446 kts
2026-05-04 23:26 -36.76817 -72.02399 35992 ft 446 kts
2026-05-04 23:26 -36.70807 -72.00607 35995 ft 447 kts
2026-05-04 23:27 -36.64755 -71.98801 36000 ft 447 kts
2026-05-04 23:27 -36.58700 -71.96992 36006 ft 447 kts
2026-05-04 23:28 -36.52647 -71.95191 36000 ft 447 kts
2026-05-04 23:28 -36.46604 -71.93407 36012 ft 447 kts
2026-05-04 23:29 -36.40533 -71.91608 36025 ft 448 kts
2026-05-04 23:29 -36.34462 -71.89803 36021 ft 448 kts
2026-05-04 23:30 -36.28405 -71.88008 36003 ft 449 kts
2026-05-04 23:30 -36.22329 -71.86219 36012 ft 449 kts
2026-05-04 23:31 -36.16242 -71.84434 36021 ft 449 kts
2026-05-04 23:31 -36.10152 -71.82645 36026 ft 450 kts
2026-05-04 23:32 -36.04057 -71.80853 36006 ft 450 kts
2026-05-04 23:32 -35.98004 -71.79068 36019 ft 450 kts
2026-05-04 23:33 -35.91885 -71.77274 36027 ft 450 kts
2026-05-04 23:33 -35.85810 -71.75509 36032 ft 450 kts
2026-05-04 23:34 -35.79721 -71.73741 36014 ft 450 kts
2026-05-04 23:34 -35.73611 -71.71967 36023 ft 450 kts
2026-05-04 23:35 -35.67531 -71.70191 36024 ft 450 kts
2026-05-04 23:35 -35.61438 -71.68425 36030 ft 450 kts
2026-05-04 23:36 -35.55330 -71.66653 36002 ft 450 kts
2026-05-04 23:36 -35.49245 -71.64880 36008 ft 451 kts
2026-05-04 23:37 -35.43110 -71.63096 36026 ft 451 kts
2026-05-04 23:37 -35.36991 -71.61331 36029 ft 452 kts
2026-05-04 23:38 -35.30895 -71.59579 36006 ft 452 kts
2026-05-04 23:38 -35.24787 -71.57813 36009 ft 452 kts
2026-05-04 23:39 -35.18650 -71.56049 36014 ft 452 kts
2026-05-04 23:39 -35.12507 -71.54292 36010 ft 452 kts
2026-05-04 23:40 -35.06375 -71.52535 36002 ft 452 kts
2026-05-04 23:40 -35.00282 -71.50798 36006 ft 453 kts
2026-05-04 23:41 -34.94142 -71.49040 36016 ft 454 kts
2026-05-04 23:41 -34.87989 -71.47282 36018 ft 454 kts
2026-05-04 23:42 -34.81840 -71.45533 36020 ft 453 kts
2026-05-04 23:42 -34.75696 -71.43782 36003 ft 452 kts
2026-05-04 23:43 -34.69570 -71.42041 36010 ft 452 kts
2026-05-04 23:43 -34.63474 -71.39995 36016 ft 461 kts 14°
2026-05-04 23:44 -34.57511 -71.37052 35277 ft 468 kts 14°
2026-05-04 23:44 -34.54470 -71.35556 34308 ft 475 kts 14°
2026-05-04 23:44 -34.51399 -71.34041 33399 ft 478 kts 15°
2026-05-04 23:45 -34.48308 -71.32517 32477 ft 481 kts 15°
2026-05-04 23:45 -34.45199 -71.30989 31558 ft 484 kts 15°
2026-05-04 23:45 -34.42070 -71.29453 30637 ft 486 kts 15°
2026-05-04 23:45 -34.38919 -71.27908 29669 ft 489 kts 15°
2026-05-04 23:46 -34.35797 -71.26379 28602 ft 492 kts 15°
2026-05-04 23:46 -34.32626 -71.24824 27750 ft 490 kts 15°
2026-05-04 23:46 -34.29464 -71.23273 26922 ft 489 kts 15°
2026-05-04 23:46 -34.26323 -71.21731 26191 ft 486 kts 15°
2026-05-04 23:47 -34.23160 -71.20182 25519 ft 482 kts 15°
2026-05-04 23:47 -34.20108 -71.18689 24872 ft 478 kts 15°
2026-05-04 23:47 -34.17039 -71.17190 24228 ft 474 kts 15°
2026-05-04 23:47 -34.13989 -71.15705 23587 ft 470 kts 15°
2026-05-04 23:48 -34.10971 -71.14239 22874 ft 466 kts 15°
2026-05-04 23:48 -34.07982 -71.12789 22261 ft 460 kts 15°
2026-05-04 23:48 -34.05032 -71.11354 21652 ft 454 kts 16°
2026-05-04 23:48 -34.02112 -71.09934 20952 ft 451 kts 16°
2026-05-04 23:49 -33.99232 -71.08536 20440 ft 442 kts 16°
2026-05-04 23:49 -33.96394 -71.07163 19867 ft 437 kts 16°
2026-05-04 23:49 -33.93594 -71.05808 19387 ft 429 kts 16°
2026-05-04 23:49 -33.90850 -71.04479 18904 ft 422 kts 17°
2026-05-04 23:50 -33.88146 -71.03169 18420 ft 416 kts 17°
2026-05-04 23:50 -33.85476 -71.01878 17902 ft 411 kts 17°
2026-05-04 23:50 -33.82848 -71.00608 17425 ft 403 kts 17°
2026-05-04 23:50 -33.80270 -70.99361 16961 ft 396 kts 17°
2026-05-04 23:51 -33.77725 -70.98131 16483 ft 391 kts 17°
2026-05-04 23:51 -33.75218 -70.96919 16011 ft 386 kts 17°
2026-05-04 23:51 -33.72741 -70.95720 15519 ft 381 kts 17°
2026-05-04 23:51 -33.70291 -70.94538 15048 ft 378 kts 17°
2026-05-04 23:52 -33.67868 -70.93369 14551 ft 371 kts 17°
2026-05-04 23:52 -33.65579 -70.92257 14091 ft 349 kts 18°
2026-05-04 23:52 -33.63347 -70.91174 13623 ft 334 kts 17°
2026-05-04 23:52 -33.61301 -70.90186 13445 ft 308 kts 17°
2026-05-04 23:53 -33.59386 -70.89263 13137 ft 289 kts 17°
2026-05-04 23:53 -33.57559 -70.88388 12556 ft 281 kts 17°
2026-05-04 23:53 -33.55831 -70.87363 12106 ft 276 kts 27°
2026-05-04 23:53 -33.54202 -70.86161 11826 ft 273 kts 27°
2026-05-04 23:54 -33.52586 -70.84976 11376 ft 271 kts 27°
2026-05-04 23:54 -33.51530 -70.84203 11080 ft 269 kts 27°
2026-05-04 23:54 -33.49405 -70.82650 10468 ft 266 kts 28°
2026-05-04 23:54 -33.47826 -70.81492 10101 ft 263 kts 28°
2026-05-04 23:55 -33.46808 -70.80744 10031 ft 264 kts 28°
2026-05-04 23:55 -33.45156 -70.79838 9963 ft 258 kts 11°
2026-05-04 23:55 -33.41753 -70.80196 9032 ft 249 kts 334°
2026-05-04 23:56 -33.40294 -70.81309 8543 ft 248 kts 325°
2026-05-04 23:56 -33.38873 -70.82475 8044 ft 247 kts 326°
2026-05-04 23:56 -33.37452 -70.83626 7893 ft 240 kts 326°
2026-05-04 23:56 -33.36112 -70.84702 7972 ft 227 kts 326°
2026-05-04 23:57 -33.34807 -70.85749 8000 ft 225 kts 326°
2026-05-04 23:57 -33.33523 -70.86781 7914 ft 225 kts 326°
2026-05-04 23:57 -33.32230 -70.87821 7804 ft 223 kts 326°
2026-05-04 23:57 -33.30946 -70.88855 7589 ft 222 kts 326°
2026-05-04 23:58 -33.29666 -70.89886 7279 ft 221 kts 327°
2026-05-04 23:58 -33.28441 -70.90872 7190 ft 200 kts 326°
2026-05-04 23:58 -33.27340 -70.91759 7116 ft 182 kts 327°
2026-05-04 23:58 -33.26325 -70.92566 7030 ft 169 kts 330°
2026-05-04 23:59 -33.25263 -70.93110 6838 ft 163 kts 345°
2026-05-04 23:59 -33.24151 -70.93304 6643 ft 163 kts 358°
2026-05-04 23:59 -33.23032 -70.93159 6457 ft 164 kts 12°
2026-05-04 23:59 -33.21960 -70.92675 6268 ft 166 kts 25°
2026-05-05 00:00 -33.21014 -70.91875 6069 ft 168 kts 40°
2026-05-05 00:00 -33.20481 -70.91176 5931 ft 170 kts 50°
2026-05-05 00:00 -33.19760 -70.89521 5652 ft 172 kts 70°
2026-05-05 00:00 -33.19560 -70.88113 5444 ft 173 kts 85°
2026-05-05 00:01 -33.19683 -70.86684 5230 ft 174 kts 102°
2026-05-05 00:01 -33.20111 -70.85340 5009 ft 174 kts 117°
2026-05-05 00:01 -33.20772 -70.84138 4805 ft 173 kts 127°
2026-05-05 00:01 -33.21596 -70.83097 4582 ft 173 kts 137°
2026-05-05 00:02 -33.22557 -70.82248 4367 ft 173 kts 148°
2026-05-05 00:02 -33.23636 -70.81616 4157 ft 173 kts 158°
2026-05-05 00:02 -33.24791 -70.81224 3945 ft 172 kts 169°
2026-05-05 00:02 -33.25978 -70.81074 3734 ft 171 kts 175°
2026-05-05 00:03 -33.27160 -70.80978 3521 ft 169 kts 175°
2026-05-05 00:03 -33.28331 -70.80879 3303 ft 168 kts 175°
2026-05-05 00:03 -33.29482 -70.80782 3110 ft 166 kts 175°
2026-05-05 00:03 -33.30608 -70.80709 2881 ft 157 kts 177°
2026-05-05 00:04 -33.31685 -70.80650 2657 ft 152 kts 178°
2026-05-05 00:04 -33.32729 -70.80597 2456 ft 149 kts 178°
2026-05-05 00:04 -33.33760 -70.80544 2257 ft 147 kts 178°
2026-05-05 00:04 -33.34782 -70.80490 2061 ft 146 kts 178°
2026-05-05 00:05 -33.35795 -70.80435 1865 ft 145 kts 178°
2026-05-05 00:05 -33.36787 -70.80393 1700 ft 146 kts 177°
2026-05-05 00:05 -33.37808 -70.80339 1592 ft 144 kts 177°
2026-05-05 00:05 -33.38706 -70.80293 1575 ft 110 kts 177°
2026-05-05 00:06 -33.39175 -70.80262 1573 ft 31 kts 172°
2026-05-05 00:06 -33.39350 -70.80184 1571 ft 19 kts 148°
2026-05-05 00:06 -33.39465 -70.80097 1567 ft 20 kts 147°
2026-05-05 00:06 -33.39527 -70.79987 1565 ft 14 kts 103°
2026-05-05 00:07 -33.39529 -70.79872 1565 ft 13 kts 88°
2026-05-05 00:07 -33.39525 -70.79766 1565 ft 11 kts 87°
2026-05-05 00:07 -33.39522 -70.79684 1565 ft 8 kts 86°
2026-05-05 00:07 -33.39518 -70.79602 1564 ft 15 kts 87°
2026-05-05 00:08 -33.39511 -70.79441 1564 ft 22 kts 89°
2026-05-05 00:08 -33.39506 -70.79274 1564 ft 16 kts 85°
2026-05-05 00:08 -33.39500 -70.79171 1564 ft 8 kts 86°
2026-05-05 00:08 -33.39497 -70.79114 1564 ft 5 kts 87°
2026-05-05 00:09 -33.39496 -70.79058 1564 ft 2 kts 97°
2026-05-05 00:09 -33.39516 -70.79051 1564 ft 7 kts 170°
2026-05-05 00:09 -33.39567 -70.79061 1564 ft 0 kts 191°